Weather History for KMHS - October, 2014

Change the Weather History Date:

Wednesday, October 15, 2014

  Actual Average Record
Temperature  
Mean Temperature 51 °F 52 °F  
Max Temperature 59 °F 67 °F 85 °F (1961)
Min Temperature 42 °F 37 °F 27 °F (1981)
Degree Days  
Heating Degree Days 14 13  
Month to date heating degree days 91 163  
Since 1 July heating degree days 171 400  
Cooling Degree Days 0 0  
Month to date cooling degree days 0 0  
Year to date cooling degree days 547 287  
Moisture  
Dew Point 42 °F    
Average Humidity 82    
Maximum Humidity 93    
Minimum Humidity 47    
Precipitation  
Precipitation 0.59 in 0.07 in 0.90 in (1924)
Month to date precipitation 1.34 0.68  
Year to date precipitation 16.18 28.68  
Sea Level Pressure  
Sea Level Pressure 29.91 in    
Wind  
Wind Speed 1 mph (ENE)    
Max Wind Speed 8 mph    
Max Gust Speed 16 mph    
Visibility 8 miles    
Events Rain    
T = Trace of Precipitation, MM = Missing Value Source: NWS Daily Summary

Daily Weather History Graph

Daily Weather History Graph

Search for Another Location

Airport or City:

Trip Planner

Search our weather history database for the weather conditions in past years. The results will help you decide how hot, cold, wet, or windy it might be!

Date:

Astronomy

Oct. 15, 2014 Rise Set
Actual Time 7:21 AM PDT 6:28 PM PDT
Civil Twilight 6:53 AM PDT 6:55 PM PDT
Nautical Twilight 6:21 AM PDT 7:27 PM PDT
Astronomical Twilight 5:49 AM PDT 7:59 PM PDT
Moon No Moon Rise 2:08 PM PDT (10/15)
Length of Visible Light 12h 02m
Length of Day
11h 07m
Waning Gibbous, 50% of the Moon is Illuminated
Oct 15
Waning Gibbous
Oct 15
Last Quarter
Oct 23
New
Oct 30
First Quarter
Nov 6
Full

Hourly Weather History & Observations

Time (PDT) Temp. Dew Point Humidity Pressure Visibility Wind Dir Wind Speed Gust Speed Precip Events Conditions
12:02 AM 48.9 °F 46.9 °F 93% 29.70 in 2.5 mi Variable 3.5 mph - 0.03 in Rain Heavy Rain
12:20 AM 48.9 °F 46.9 °F 93% 29.70 in 6.0 mi Variable 3.5 mph - 0.10 in Rain Rain
12:40 AM 48.9 °F 46.9 °F 93% 29.69 in 5.0 mi Variable 4.6 mph - 0.12 in Rain Rain
12:56 AM 48.9 °F 46.9 °F 93% 29.70 in 5.0 mi Calm Calm - 0.15 in Rain Light Rain
1:12 AM 48.9 °F 46.9 °F 93% 29.70 in 1.8 mi Calm Calm - 0.06 in Rain Heavy Rain
1:22 AM 48.0 °F 46.9 °F 96% 29.69 in 1.8 mi Variable 3.5 mph - 0.15 in Rain Heavy Rain
1:54 AM 48.2 °F 46.4 °F 93% 29.70 in 3.0 mi Calm Calm - 0.43 in Rain Heavy Rain
1:56 AM 48.0 °F 46.9 °F 96% 29.70 in 3.0 mi Calm Calm - 0.44 in Rain Heavy Rain
2:27 AM 48.0 °F 46.0 °F 93% 29.72 in 3.0 mi Calm Calm - 0.09 in Rain Heavy Rain
2:56 AM 46.9 °F 45.0 °F 93% 29.73 in 10.0 mi ENE 4.6 mph - 0.14 in Rain Light Rain
3:56 AM 46.9 °F 43.0 °F 86% 29.75 in 10.0 mi East 5.8 mph - 0.00 in   Overcast
4:56 AM 46.0 °F 43.0 °F 89% 29.78 in 10.0 mi Calm Calm - 0.00 in   Overcast
5:56 AM 45.0 °F 43.0 °F 93% 29.83 in 10.0 mi Calm Calm - 0.00 in   Mostly Cloudy
6:56 AM 45.0 °F 43.0 °F 93% 29.87 in 10.0 mi Calm Calm - N/A   Overcast
7:56 AM 43.0 °F 39.9 °F 89% 29.91 in 10.0 mi Calm Calm - 0.01 in   Clear
8:56 AM 45.0 °F 42.1 °F 90% 29.96 in 10.0 mi Calm Calm - N/A   Clear
9:56 AM 48.0 °F 42.1 °F 80% 29.99 in 10.0 mi Variable 3.5 mph - N/A   Clear
10:56 AM 54.0 °F 43.0 °F 66% 30.01 in 10.0 mi Variable 3.5 mph - N/A   Mostly Cloudy
11:56 AM 54.0 °F 43.0 °F 66% 30.03 in 10.0 mi Calm Calm - N/A   Scattered Clouds
12:56 PM 53.1 °F 41.0 °F 64% 30.05 in 10.0 mi Calm Calm - 0.00 in Rain Light Rain
1:56 PM 55.9 °F 41.0 °F 57% 30.04 in 10.0 mi Calm Calm - 0.00 in   Overcast
2:56 PM 57.0 °F 37.9 °F 49% 30.04 in 10.0 mi Calm Calm - N/A   Overcast
3:56 PM 55.9 °F 36.0 °F 47% 30.05 in 10.0 mi Calm Calm - N/A   Mostly Cloudy
4:56 PM 54.0 °F 39.0 °F 57% 30.06 in 10.0 mi Calm Calm - N/A   Mostly Cloudy
5:56 PM 52.0 °F 39.0 °F 61% 30.08 in 10.0 mi Calm Calm - N/A   Scattered Clouds
6:56 PM 46.9 °F 39.0 °F 74% 30.11 in 10.0 mi Calm Calm - N/A   Partly Cloudy
7:56 PM 44.1 °F 39.0 °F 82% 30.12 in 10.0 mi Calm Calm - N/A   Clear
8:56 PM 44.1 °F 39.9 °F 85% 30.12 in 10.0 mi Calm Calm - N/A   Mostly Cloudy
9:56 PM 44.1 °F 39.9 °F 85% 30.10 in 10.0 mi Calm Calm - N/A   Clear
10:56 PM 43.0 °F 39.9 °F 89% 30.09 in 10.0 mi Calm Calm - N/A   Mostly Cloudy
11:03 PM 43.0 °F 39.9 °F 89% 30.05 in 9.0 mi Calm Calm - N/A   Scattered Clouds
11:56 PM 43.0 °F 39.0 °F 86% 30.09 in 10.0 mi Calm Calm - N/A   Partly Cloudy